Regional Weather Roundup
Issued by NWS

Home | Current Version | Previous Version | Graphics & Text | Print | Product List | Glossary On
Versions: 1 2 3 4 5 6 7 8 9 10 11 12 13 14 15 16 17 18 19 20 21 22 23 24 25 26 27 28 29 30 31 32 33 34 35 36 37 38 39 40 41 42 43 44 45 46 47 48 49 50
000
ASUS45 KTFX 171910
RWRMT
MONTANA REGIONAL WEATHER ROUNDUP
NATIONAL WEATHER SERVICE GREAT FALLS MT
1200 PM MST TUE JAN 17 2017

NOTE: "FAIR" INDICATES FEW OR NO CLOUDS BELOW 12000 FEET WITH NO
SIGNIFICANT WEATHER AND/OR OBSTRUCTIONS TO VISIBILITY.

MTZ001>007-043-172000-
WEST OF THE DIVIDE

CITY           SKY/WX    TMP DP  RH WIND       PRES   REMARKS
KALISPELL      CLOUDY    18  13  80 CALM      30.04S
MISSOULA       CLOUDY     8   4  83 W5        30.13F FOG
BUTTE          CLOUDY    18   7  62 NW6       30.03F WCI  10
MULLAN PASS    CLOUDY    29  18  63 S12       29.93F WCI  19
ANACONDA         N/A     36   9  32 SE17G24   29.99F WCI  25
DEER LODGE       N/A     14   3  62 CALM      30.04F
EUREKA           N/A     27  18  69 N9        29.95F WCI  17
HAMILTON         N/A     10   3  72 CALM      30.07F
PLAINS           N/A     11   3  70 CALM      30.09F
RONAN            N/A     10   5  80 MISG      30.07F
$$

MTZ008-052>055-172000-
SOUTHWEST MONTANA

CITY           SKY/WX    TMP DP  RH WIND       PRES   REMARKS
BOZEMAN        CLOUDY    17  10  74 SE6       30.06F WCI   9
DILLON         CLOUDY    27   8  44 S12G20    30.05F WCI  17
ENNIS          SUNNY     27  16  63 S24G31    30.09F WCI  12
TWIN BRIDGES     N/A     21   6  52 E6        30.05F WCI  13
$$

MTZ009-010-012-014-046-048-049-054-172000-
EAST SLOPES AND CENTRAL MONTANA

CITY           SKY/WX    TMP DP  RH WIND       PRES   REMARKS
CUT BANK       CLOUDY    42  24  49 W37G45    29.73F
GREAT FALLS    CLOUDY    40  22  48 SW25      29.83F
MALMSTROM AFB  CLOUDY    40  27  59 SW21      29.84F
HELENA         CLOUDY    12   2  64 N3        30.05F
AUGUSTA          N/A     42  26  52 S15       29.82F
BOWMANS CRNR     N/A     29  16  58 S33       29.83F WCI  12
CHOTEAU          N/A     45  27  49 SW20G28   29.80F
CONRAD           N/A     43  34  70 CALM      29.83S
FAIRFIELD        N/A     35  21  55 S28G35    29.80F WCI  23
POWER            N/A     37  23  56 S18       29.81F WCI  27
RAYNESFORD       N/A     51  25  36 SW14G22   29.84F
ULM              N/A     42  24  48 MISG      29.86F
$$

MTZ011-013-016-021-045-047-050-051-172000-
NORTH CENTRAL MONTANA

CITY           SKY/WX    TMP DP  RH WIND       PRES   REMARKS
HAVRE          CLOUDY    41  25  53 SW31      29.75R
LEWISTOWN      CLOUDY    41  26  55 W14       29.84F
N BAR RANCH      N/A     46  27  46 NW12      29.84R
CHINOOK          N/A     46  25  42 W26G35    29.68F
DENTON           N/A     45  28  53 W31G40    29.77F
FORT BENTON      N/A     46  25  42 MISG      29.80F
GEYSER           N/A     46  28  49 W21G28    29.78F
GRASS RANGE      N/A     47  25  43 W14       29.79R
JUDITH GAP       N/A     44  25  47 SW17G28   29.86S
ROY              N/A     48  28  45 MISG      29.77F
STANFORD         N/A     45  29  53 W12       29.83F
WINIFRED         N/A     44  26  49 W17       29.79F
$$

MTZ017>020-022>027-061-062-172000-
NORTHEAST MONTANA

CITY           SKY/WX    TMP DP  RH WIND       PRES   REMARKS
GLASGOW        CLOUDY    27  20  75 E7        29.72F WCI  19
JORDAN           N/A     40  27  59 W14       29.76F
SIDNEY         CLOUDY    25  16  68 S14       29.77S WCI  13
WOLF POINT     CLOUDY    19  11  70 SE3       29.75S
PLENTYWOOD       N/A     25  18  74 SE6       29.67F WCI  18
POPLAR           N/A     23  12  63 CALM      29.75F
SCOBEY           N/A     34  15  46 S1        29.68F
$$

MTZ028>42-056>058-172000-
SOUTHCENTRAL AND SOUTHEAST MONTANA

CITY           SKY/WX    TMP DP  RH WIND       PRES   REMARKS
BAKER          CLOUDY    31  17  56 W24       29.82F WCI  17
BILLINGS       CLOUDY    32  16  51 SW25G32   29.88F WCI  19
LIVINGSTON     CLOUDY    40  17  39 SW38G48   29.94F
MILES CITY     CLOUDY    22  12  65 S9        29.84F WCI  12
BIG TIMBER     SUNNY     43  19  39 W30G38    29.92F
EKALAKA          N/A     36  10  34 SW15      29.83F WCI  27
FORSYTH          N/A     34  16  47 W3        29.84F
HARLOWTON        N/A     43  20  40 W24G32    29.89R
LAUREL           N/A     35  17  48 S24       29.88F WCI  23
$$

REGIONAL REPORTS...DAKOTAS

CITY           SKY/WX    TMP DP  RH WIND       PRES   REMARKS
WILLISTON      CLOUDY    25  14  63 S9G17     29.74F WCI  15
MINOT          CLOUDY    28  16  60 S21       29.70F WCI  15
DICKINSON      CLOUDY    29  17  61 SW15      29.76F WCI  18
BEACH            N/A     32  18  55 SW25G35   29.79F WCI  19
CROSBY           N/A     23  18  80 S23G30    29.65F WCI   7
TIOGA            N/A     25  19  80 SW25      29.69F WCI   9
WATFORD CITY     N/A     28  18  64 SW16      29.74F WCI  17
BISMARCK       CLOUDY    18  11  74 E3        29.86F
GRAND FORKS    CLOUDY    19  12  74 S15       29.85F WCI   5
FARGO          SUNNY     18  13  80 S12       29.94S WCI   5
BUFFALO SD       N/A     32  19  58 W13       29.79F WCI  22
RAPID CITY     CLOUDY    30  21  69 S3        29.90F
$$

REGIONAL REPORTS...WYOMING/IDAHO/WASHINGTON

CITY           SKY/WX    TMP DP  RH WIND       PRES   REMARKS
GILLETTE       CLOUDY    38  18  44 SW17      29.90F WCI  28
SHERIDAN       SUNNY     24  13  62 S5        29.88F
BUFFALO WY     CLOUDY    39  11  31 CALM      29.90F
CODY           CLOUDY    19   6  57 NE5       29.98F
YELLOWSTONE LA   N/A      3  -2  79 CALM      30.18F
IDAHO FALLS    CLOUDY     4  -1  80 N7        30.29F WCI  -8
SALMON         CLOUDY    -8 -17  65 CALM      30.37F
BOISE          SUNNY     11   4  73 CALM      30.36S HAZE
SPOKANE        CLOUDY    21  17  84 CALM      30.03S
$$

REGIONAL REPORTS...ALBERTA

CITY           SKY/WX    TMP DP  RH WIND       PRES   REMARKS
EDMONTON       PTSUNNY   43  27  52 SW5       29.34F
CALGARY        MOSUNNY   46  30  53 S13       29.49F
LETHBRIDGE     PTSUNNY   41  30  65 SW25      29.67S
MEDICINE HAT   PTSUNNY   41  32  70 SW22G31   29.56F
WATERTON GATE    N/A     41  21  45 SW29G43     N/A
CARDSTON         N/A     46  27  46 S10G22      N/A
MILK RIVER       N/A     43  28  56 W18G24      N/A
ONEFOUR          N/A     43  28  56 W20         N/A
$$

REGIONAL REPORTS...SASKATCHEWAN

CITY           SKY/WX    TMP DP  RH WIND       PRES   REMARKS
SWIFT CURRENT  SUNNY     43  34  70 W23G30    29.53F
REGINA         PTSUNNY   37  28  70 SW14      29.52F WCI  29
SASKATOON      PTSUNNY   34  28  80 SW10      29.45S WCI  26
ROCKGLEN         N/A     36  25  64 W28         N/A  WCI  23
ASSINIBOIA       N/A     39  28  65 S7          N/A
$$



USA.gov is the U.S. government's official web portal to all federal, state and local government web resources and services.